Regional Weather Roundup
Issued by NWS

Home | Current Version | Previous Version | Graphics & Text | Print | Product List | Glossary On
Versions: 1 2 3 4 5 6 7 8 9 10 11 12 13 14 15 16 17 18 19 20 21 22 23 24 25 26 27 28 29 30 31 32 33 34 35 36 37 38 39 40 41 42 43 44 45 46 47 48 49 50
569
ASUS45 KCYS 290910
RWRWY

WYOMING REGIONAL WEATHER ROUNDUP
NATIONAL WEATHER SERVICE CHEYENNE WY
300 AM MDT SUN MAY 29 2016

NOTE:  "FAIR" INDICATES FEW OR NO CLOUDS BELOW 12,000 FEET
WITH NO SIGNIFICANT WEATHER AND/OR OBSTRUCTIONS TO VISIBILITY.

WYZ001-291000-
YELLOWSTONE NATIONAL PARK

CITY           SKY/WX    TMP DP  RH WIND       PRES   REMARKS
LK YELLOWSTONE   N/A     28  25  88 CALM      30.25R
W YELLOWSTONE  NOT AVBL

$$
WYZ002>013-054>058-071-098>099-291000-
NORTHERN WYOMING

CITY           SKY/WX    TMP DP  RH WIND       PRES   REMARKS
JACKSON        FAIR      30  28  93 N7        30.20R WCI  23
CODY           FAIR      46  37  71 CALM      30.09S
GREYBULL       MOCLDY    53  44  71 SW5       30.05S
WORLAND        FAIR      46  43  89 CALM      30.06S
SHERIDAN       FAIR      43  39  86 CALM      30.06F
BUFFALO        MOCLDY    53  43  68 S7        30.09F
GILLETTE       RAIN      50  46  86 S23G32    30.09R FOG
HULETT         FAIR      45  41  87 S5        30.09F
NEWCASTLE      FAIR      45  43  93 N6        30.10S

$$
WYZ014>020-022>026-101>103-291000-
CENTRAL WYOMING

CITY           SKY/WX    TMP DP  RH WIND       PRES   REMARKS
BIG PINEY      FAIR      34  29  82 N12       30.21R WCI  25
PINEDALE       FAIR      32  30  93 CALM      30.21S
DUBOIS         FAIR      34  21  60 NW9       30.19S WCI  26
LANDER         FAIR      44  29  55 W5        30.10R
RIVERTON       FAIR      46  37  71 NW10      30.10R
CASPER         FAIR      40  37  89 W6        30.09R
DOUGLAS          N/A    N/A N/A N/A MISG      30.08F

$$
WYZ021-027>030-104>119-291000-
SOUTHERN WYOMING

CITY           SKY/WX    TMP DP  RH WIND       PRES   REMARKS
EVANSTON       FAIR      46  28  49 CALM      30.20S
KEMMERER         N/A     36  32  87 NW7       30.21S WCI  30
FORT BRIDGER   SUNNY     45  32  61 W6        30.22F
ROCK SPRINGS   FAIR      44  36  73 SW8       30.18S
DIXON          FAIR      43  36  76 CALM      30.21S
RAWLINS        FAIR      45  33  63 SW7       30.17F
SARATOGA       FAIR      41  36  81 SE13      30.20F
LARAMIE        FAIR      40  35  83 S12       30.20S WCI  33
CHEYENNE       FAIR      46  37  71 W7        30.16S
TORRINGTON     FAIR      47  43  86 N6        30.07F
PINE BLUFFS    FAIR      41  39  93 CALM      30.14S

$$




USA.gov is the U.S. government's official web portal to all federal, state and local government web resources and services.